Washington, PA

6:50 AM EDT on June 25, 2017 (GMT -0400)
Washington County

Weather History for KAFJ - January, 2013

Change the Weather History Date:

Sunday, January 20, 2013

  Actual Average Record
Temperature  
Mean Temperature 34 °F -  
Max Temperature 44 °F 32 °F 59 °F (2006)
Min Temperature 24 °F 18 °F 1 °F (2009)
Degree Days  
Heating Degree Days 31    
Moisture  
Dew Point 17 °F    
Average Humidity 47    
Maximum Humidity 59    
Minimum Humidity 35    
Precipitation  
Precipitation 0.00 in - - ()
Sea Level Pressure  
Sea Level Pressure 29.99 in    
Wind  
Wind Speed 16 mph (WSW)    
Max Wind Speed 25 mph    
Max Gust Speed 36 mph    
Visibility 10 miles    
Events      
Averages and records for this station are not official NWS values.
T = Trace of Precipitation, MM = Missing Value Source: NWS Daily Summary

Daily Weather History Graph

Daily Weather History Graph

Search for Another Location

Airport or City:

Trip Planner

Search our weather history database for the weather conditions in past years. The results will help you decide how hot, cold, wet, or windy it might be!

Date:

Astronomy

Jan. 20, 2013 Rise Set
Actual Time 7:38 AM EST 5:26 PM EST
Civil Twilight 7:09 AM EST 5:55 PM EST
Nautical Twilight 6:36 AM EST 6:28 PM EST
Astronomical Twilight 6:04 AM EST 7:01 PM EST
Moon 12:26 PM EST (1/20) 2:09 AM EST (1/20)
Length of Visible Light 10h 46m
Length of Day
9h 47m
Waxing Gibbous, 66% of the Moon is Illuminated
Jan 20
Waxing Gibbous
Jan 26
Full
Feb 3
Last Quarter
Feb 10
New
Feb 17
First Quarter

Hourly Weather History & Observations

Time (EST) Temp. Windchill Dew Point Humidity Pressure Visibility Wind Dir Wind Speed Gust Speed Precip Events Conditions
12:15 AM 44.6 °F 36.1 °F 21.2 °F 39% 29.85 in 10.0 mi SW 21.9 mph 27.6 mph N/A   Clear
12:35 AM 44.6 °F 37.4 °F 23.0 °F 43% 29.84 in 10.0 mi SW 16.1 mph 24.2 mph N/A   Clear
12:55 AM 44.6 °F 38.4 °F 23.0 °F 43% 29.84 in 10.0 mi SW 12.7 mph 23.0 mph N/A   Clear
1:15 AM 44.6 °F 36.4 °F 23.0 °F 43% 29.83 in 10.0 mi SW 20.7 mph 26.5 mph N/A   Clear
1:35 AM 44.6 °F 36.4 °F 24.8 °F 46% 29.83 in 10.0 mi SW 20.7 mph 29.9 mph N/A   Clear
1:55 AM 44.6 °F 37.2 °F 24.8 °F 46% 29.83 in 10.0 mi SW 17.3 mph 26.5 mph N/A   Scattered Clouds
2:15 AM 44.6 °F 36.1 °F 24.8 °F 46% 29.83 in 10.0 mi SW 21.9 mph 33.4 mph N/A   Partly Cloudy
2:35 AM 44.6 °F 36.6 °F 24.8 °F 46% 29.83 in 10.0 mi SW 19.6 mph 27.6 mph N/A   Clear
2:55 AM 44.6 °F 35.9 °F 24.8 °F 46% 29.82 in 10.0 mi SW 23.0 mph 32.2 mph N/A   Clear
3:15 AM 44.6 °F 36.6 °F 26.6 °F 49% 29.82 in 10.0 mi SW 19.6 mph 28.8 mph N/A   Clear
3:35 AM 44.6 °F 36.6 °F 26.6 °F 49% 29.81 in 10.0 mi SW 19.6 mph 28.8 mph N/A   Clear
3:55 AM 44.6 °F 37.4 °F 26.6 °F 49% 29.81 in 10.0 mi SW 16.1 mph 27.6 mph N/A   Clear
4:15 AM 44.6 °F 36.1 °F 26.6 °F 49% 29.81 in 10.0 mi SW 21.9 mph 33.4 mph N/A   Clear
4:35 AM 44.6 °F 36.4 °F 26.6 °F 49% 29.81 in 10.0 mi SW 20.7 mph 33.4 mph N/A   Clear
4:55 AM 42.8 °F 34.0 °F 26.6 °F 53% 29.82 in 10.0 mi SW 20.7 mph 34.5 mph N/A   Clear
5:15 AM 44.6 °F 37.2 °F 28.4 °F 53% 29.82 in 10.0 mi SW 17.3 mph 32.2 mph N/A   Mostly Cloudy
5:35 AM 44.6 °F 35.5 °F 28.4 °F 53% 29.82 in 10.0 mi SW 25.3 mph 35.7 mph N/A   Overcast
5:55 AM 44.6 °F 35.5 °F 28.4 °F 53% 29.83 in 10.0 mi WSW 25.3 mph 32.2 mph N/A   Overcast
6:15 AM 42.8 °F 34.5 °F 28.4 °F 57% 29.83 in 10.0 mi WSW 18.4 mph 31.1 mph N/A   Overcast
6:35 AM 42.8 °F 34.5 °F 28.4 °F 57% 29.84 in 10.0 mi WSW 18.4 mph 26.5 mph N/A   Overcast
6:55 AM 42.8 °F 36.2 °F 28.4 °F 57% 29.85 in 10.0 mi WSW 12.7 mph 24.2 mph N/A   Overcast
7:15 AM 42.8 °F 35.8 °F 28.4 °F 57% 29.86 in 10.0 mi WSW 13.8 mph 25.3 mph N/A   Mostly Cloudy
7:35 AM 41.0 °F 33.1 °F 24.8 °F 53% 29.88 in 10.0 mi West 15.0 mph 28.8 mph N/A   Partly Cloudy
7:55 AM 41.0 °F 32.2 °F 21.2 °F 45% 29.89 in 10.0 mi West 18.4 mph 27.6 mph N/A   Partly Cloudy
8:15 AM 39.2 °F 30.8 °F 23.0 °F 52% 29.90 in 10.0 mi West 15.0 mph 24.2 mph N/A   Scattered Clouds
8:35 AM 39.2 °F 31.6 °F 19.4 °F 45% 29.93 in 10.0 mi West 12.7 mph 24.2 mph N/A   Overcast
8:55 AM 39.2 °F 31.6 °F 21.2 °F 49% 29.94 in 10.0 mi West 12.7 mph 23.0 mph N/A   Overcast
9:15 AM 37.4 °F 30.8 °F 19.4 °F 48% 29.96 in 10.0 mi West 9.2 mph 25.3 mph N/A   Mostly Cloudy
9:35 AM 37.4 °F 29.3 °F 17.6 °F 45% 29.98 in 10.0 mi West 12.7 mph 26.5 mph N/A   Scattered Clouds
9:55 AM 37.4 °F 29.3 °F 19.4 °F 48% 29.99 in 10.0 mi West 12.7 mph 23.0 mph N/A   Partly Cloudy
10:15 AM 37.4 °F 27.2 °F 17.6 °F 45% 30.00 in 10.0 mi WSW 19.6 mph 26.5 mph N/A   Clear
10:35 AM 37.4 °F 28.9 °F 17.6 °F 45% 30.01 in 10.0 mi West 13.8 mph 26.5 mph N/A   Partly Cloudy
10:55 AM 37.4 °F 28.5 °F 15.8 °F 41% 30.03 in 10.0 mi WNW 15.0 mph 25.3 mph N/A   Clear
11:15 AM 37.4 °F 28.5 °F 12.2 °F 36% 30.04 in 10.0 mi West 15.0 mph 25.3 mph N/A   Clear
11:35 AM 35.6 °F 25.5 °F 12.2 °F 38% 30.04 in 10.0 mi WSW 17.3 mph 29.9 mph N/A   Clear
11:55 AM 35.6 °F 25.5 °F 12.2 °F 38% 30.04 in 10.0 mi West 17.3 mph 31.1 mph N/A   Clear
12:15 PM 35.6 °F 25.9 °F 12.2 °F 38% 30.04 in 10.0 mi West 16.1 mph 25.3 mph N/A   Clear
12:35 PM 35.6 °F 25.9 °F 12.2 °F 38% 30.04 in 10.0 mi West 16.1 mph 24.2 mph N/A   Clear
1:15 PM 35.6 °F 27.5 °F 12.2 °F 38% 30.04 in 10.0 mi West 11.5 mph 23.0 mph N/A   Partly Cloudy
1:35 PM 35.6 °F 25.5 °F 12.2 °F 38% 30.05 in 10.0 mi WNW 17.3 mph 24.2 mph N/A   Partly Cloudy
1:55 PM 35.6 °F 25.9 °F 12.2 °F 38% 30.05 in 10.0 mi West 16.1 mph 25.3 mph N/A   Clear
2:15 PM 33.8 °F 23.9 °F 12.2 °F 41% 30.06 in 10.0 mi WSW 15.0 mph 24.2 mph N/A   Clear
2:35 PM 35.6 °F 29.2 °F 10.4 °F 35% 30.07 in 10.0 mi West 8.1 mph 20.7 mph N/A   Clear
2:55 PM 33.8 °F 24.3 °F 10.4 °F 38% 30.06 in 10.0 mi WSW 13.8 mph 21.9 mph N/A   Clear
3:15 PM 33.8 °F 23.2 °F 10.4 °F 38% 30.07 in 10.0 mi WSW 17.3 mph 21.9 mph N/A   Clear
3:35 PM 33.8 °F 25.3 °F 8.6 °F 35% 30.07 in 10.0 mi West 11.5 mph 20.7 mph N/A   Clear
3:55 PM 32.0 °F 23.6 °F 8.6 °F 38% 30.07 in 10.0 mi WNW 10.4 mph 17.3 mph N/A   Clear
4:15 PM 32.0 °F 22.5 °F 10.4 °F 41% 30.07 in 10.0 mi West 12.7 mph 18.4 mph N/A   Clear
4:35 PM 30.2 °F 20.8 °F 8.6 °F 40% 30.08 in 10.0 mi West 11.5 mph 18.4 mph N/A   Clear
4:55 PM 30.2 °F 22.6 °F 8.6 °F 40% 30.08 in 10.0 mi West 8.1 mph 16.1 mph N/A   Clear
5:15 PM 30.2 °F 22.6 °F 8.6 °F 40% 30.08 in 10.0 mi West 8.1 mph - N/A   Clear
5:35 PM 28.4 °F 20.4 °F 8.6 °F 43% 30.10 in 10.0 mi West 8.1 mph - N/A   Clear
5:55 PM 28.4 °F 20.4 °F 10.4 °F 47% 30.11 in 10.0 mi West 8.1 mph - N/A   Clear
6:15 PM 28.4 °F 21.2 °F 10.4 °F 47% 30.11 in 10.0 mi WNW 6.9 mph - N/A   Clear
6:35 PM 28.4 °F 22.2 °F 10.4 °F 47% 30.11 in 10.0 mi West 5.8 mph - N/A   Clear
6:55 PM 26.6 °F 20.0 °F 10.4 °F 51% 30.11 in 10.0 mi West 5.8 mph - N/A   Clear
7:15 PM 26.6 °F 18.2 °F 10.4 °F 51% 30.11 in 10.0 mi West 8.1 mph - N/A   Clear
7:35 PM 26.6 °F 20.0 °F 10.4 °F 51% 30.12 in 10.0 mi West 5.8 mph - N/A   Clear
7:55 PM 24.8 °F 16.9 °F 10.4 °F 54% 30.12 in 10.0 mi West 6.9 mph - N/A   Clear
8:15 PM 24.8 °F 17.9 °F 10.4 °F 54% 30.12 in 10.0 mi West 5.8 mph - N/A   Clear
8:35 PM 24.8 °F 16.9 °F 10.4 °F 54% 30.12 in 10.0 mi West 6.9 mph - N/A   Clear
8:55 PM 24.8 °F 16.9 °F 10.4 °F 54% 30.13 in 10.0 mi West 6.9 mph - N/A   Scattered Clouds
9:15 PM 24.8 °F 16.9 °F 10.4 °F 54% 30.12 in 10.0 mi West 6.9 mph - N/A   Partly Cloudy
9:35 PM 24.8 °F 17.9 °F 10.4 °F 54% 30.12 in 10.0 mi West 5.8 mph - N/A   Clear
9:55 PM 24.8 °F 20.5 °F 10.4 °F 54% 30.12 in 10.0 mi WNW 3.5 mph - N/A   Clear
10:15 PM 24.8 °F - 10.4 °F 54% 30.12 in 10.0 mi Calm Calm - N/A   Partly Cloudy
10:35 PM 24.8 °F 20.5 °F 10.4 °F 54% 30.12 in 10.0 mi West 3.5 mph - N/A   Mostly Cloudy
10:55 PM 24.8 °F 20.5 °F 12.2 °F 59% 30.12 in 10.0 mi WSW 3.5 mph - N/A   Overcast
11:15 PM 24.8 °F 17.9 °F 12.2 °F 59% 30.11 in 10.0 mi West 5.8 mph - N/A   Overcast
11:35 PM 24.8 °F 20.5 °F 12.2 °F 59% 30.11 in 10.0 mi WSW 3.5 mph - N/A   Overcast
11:55 PM 24.8 °F 16.9 °F 12.2 °F 59% 30.11 in 10.0 mi WSW 6.9 mph - N/A   Overcast